Weather History for Santa Fe, NM

Change the Weather History Date:

Tuesday, December 10, 2013

  Actual Average Record
Temperature  
Mean Temperature 16 °F -  
Max Temperature 26 °F 57 °F 60 °F (1977)
Min Temperature 5 °F 18 °F -2 °F (2012)
Degree Days  
Heating Degree Days 50    
Moisture  
Dew Point 2 °F    
Average Humidity 54    
Maximum Humidity 67    
Minimum Humidity 39    
Precipitation  
Precipitation 0.00 in - - ()
Sea Level Pressure  
Sea Level Pressure 30.42 in    
Wind  
Wind Speed 12 mph (NNW)    
Max Wind Speed 21 mph    
Max Gust Speed 23 mph    
Visibility 10 miles    
Events      
Averages and records for this station are not official NWS values.
T = Trace of Precipitation, MM = Missing Value Source: NWS Daily Summary

Daily Weather History Graph

Daily Weather History Graph

Search for Another Location

Airport:

Trip Planner

Search our weather history database for the weather conditions in past years. The results will help you decide how hot, cold, wet, or windy it might be!

Date:

Astronomy

Dec. 10, 2013 Rise Set
Actual Time 7:03 AM MST 4:51 PM MST
Civil Twilight 6:34 AM MST 5:19 PM MST
Nautical Twilight 6:03 AM MST 5:51 PM MST
Astronomical Twilight 5:32 AM MST 6:22 PM MST
Moon 12:43 PM MST (12/10) 12:35 AM MST (12/10)
Length of Visible Light 10h 44m
Length of Day
9h 48m
Waxing Gibbous, 62% of the Moon is Illuminated
Dec 10
Waxing Gibbous
Dec 17
Full
Dec 25
Last Quarter
Jan 1
New
Jan 7
First Quarter

Hourly Weather History & Observations

Time (MST) Temp. Windchill Dew Point Humidity Pressure Visibility Wind Dir Wind Speed Gust Speed Precip Events Conditions
12:53 AM 10.9 °F -4.1 °F -0.9 °F 59% 30.48 in 10.0 mi North 12.7 mph - N/A   Clear
1:53 AM 10.9 °F -4.7 °F -0.9 °F 59% 30.50 in 10.0 mi NW 13.8 mph - N/A   Clear
2:53 AM 8.1 °F -5.3 °F -2.0 °F 64% 30.53 in 10.0 mi North 9.2 mph - N/A   Clear
3:53 AM 6.1 °F -13.3 °F -2.9 °F 67% 30.53 in 10.0 mi North 18.4 mph - N/A   Clear
4:53 AM 6.1 °F -12.2 °F -2.9 °F 67% 30.49 in 10.0 mi North 16.1 mph - N/A   Clear
5:53 AM 6.1 °F -14.3 °F -2.9 °F 67% 30.49 in 10.0 mi North 20.7 mph - N/A   Clear
6:53 AM 5.0 °F -10.0 °F -4.0 °F 66% 30.51 in 10.0 mi NW 10.4 mph - N/A   Clear
7:53 AM 7.0 °F -9.1 °F -2.9 °F 64% 30.50 in 10.0 mi NNW 12.7 mph 23.0 mph N/A   Clear
8:53 AM 10.9 °F -7.0 °F -2.9 °F 54% 30.49 in 10.0 mi NNW 18.4 mph - N/A   Clear
9:53 AM 16.0 °F 0.6 °F -0.0 °F 49% 30.49 in 10.0 mi North 16.1 mph - N/A   Clear
10:53 AM 19.0 °F 4.5 °F -0.9 °F 42% 30.48 in 10.0 mi North 16.1 mph - N/A   Clear
11:53 AM 19.9 °F 9.3 °F 6.1 °F 55% 30.45 in 10.0 mi SW 9.2 mph - N/A   Clear
12:53 PM 21.0 °F 13.4 °F 6.1 °F 53% 30.40 in 10.0 mi SSW 5.8 mph - N/A   Clear
1:53 PM 24.1 °F 18.2 °F 3.0 °F 40% 30.35 in 10.0 mi SW 4.6 mph - N/A   Clear
2:53 PM 26.1 °F 20.5 °F 5.0 °F 41% 30.34 in 10.0 mi SW 4.6 mph - N/A   Clear
3:53 PM 26.1 °F 21.9 °F 3.9 °F 39% 30.35 in 10.0 mi SSW 3.5 mph - N/A   Clear
4:53 PM 24.1 °F - 3.9 °F 42% 30.35 in 10.0 mi Calm Calm - N/A   Clear
5:53 PM 21.0 °F 16.2 °F 3.9 °F 48% 30.37 in 10.0 mi NNE 3.5 mph - N/A   Clear
6:53 PM 16.0 °F 8.8 °F 5.0 °F 62% 30.39 in 10.0 mi NW 4.6 mph - N/A   Clear
7:53 PM 17.1 °F 7.6 °F 6.1 °F 62% 30.39 in 10.0 mi South 6.9 mph - N/A   Clear
8:53 PM 19.9 °F 10.1 °F 6.1 °F 55% 30.36 in 10.0 mi North 8.1 mph - N/A   Clear
9:53 PM 25.0 °F 11.3 °F 7.0 °F 46% 30.31 in 10.0 mi North 18.4 mph - N/A   Clear
10:53 PM 24.1 °F 12.5 °F 7.0 °F 48% 30.31 in 10.0 mi North 12.7 mph - N/A   Clear
11:53 PM 23.0 °F 10.6 °F 6.1 °F 48% 30.31 in 10.0 mi NNW 13.8 mph - N/A   Clear